Flag for U.S.A. Weather past 2 weeks in Long Beach, California, U.S.A.

Now
86 °F

Sunny.


Feels Like: 87 °F
Forecast: 67 / 83 °F
Wind: 7 mph from Northwest

Location: Long Beach Airport

Current Time: Aug 30, 2014 at 5:28:36 PM

Latest Report: Aug 30, 2014 at 4:53 PM


Visibility: 10 mi

Pressure: 29.73 "Hg

Humidity: 45%

Dew point: 62 °F

Location of Long BeachLocation

Historic Weather in Long Beach — Graph

°F

Long Beach temperature yesterday

Maximum temperature yesterday: 85 °F (at 3:53 PM)
Minimum temperature yesterday: 67 °F (at 3:53 AM)
Average temperature yesterday: 74 °F

Past Weeks' High & Low Weather Summary

 TemperatureHumidityPressure
High93 °F (Aug 27, 2:53 PM)90% (Aug 30, 5:53 AM)30.03 "Hg (Aug 30, 5:53 AM)
Low64 °F (Aug 30, 5:53 AM)18% (Aug 28, 5:53 PM)29.75 "Hg (Aug 30, 3:53 PM)
Average74 °F65%29.91 "Hg
* Reported Aug 15 3:53 PM — Aug 30 3:53 PM, Long Beach, Weather by CustomWeather, © 2014

Note: Actual official high and low records may vary slightly from our data, if they occured in-between our weather recording intervals... More about our weather records

Advertising

Long Beach weather history for previous 24 hours

 ConditionsComfort  
Time TempWeatherWind HumidityBarometerVisibility
3:53 PM
Aug 30
84 °FSunny.6 mph51%29.75 "Hg10 mi
2:53 PM81 °FSunny.9 mph56%29.77 "Hg10 mi
1:53 PM79 °FSunny.8 mph60%29.79 "Hg10 mi
12:53 PM80 °FSunny.6 mph58%29.81 "Hg10 mi
11:53 AM80 °FSunny.3 mph58%29.83 "Hg10 mi
10:53 AM76 °FSunny.No wind64%29.83 "Hg10 mi
9:53 AM72 °FSunny.No wind76%29.85 "Hg10 mi
8:53 AM69 °FOvercast.3 mph81%29.84 "Hg9 mi
7:53 AM68 °FLow clouds.6 mph87%29.83 "Hg8 mi
6:53 AM67 °FPassing clouds.3 mph90%29.83 "Hg8 mi
5:53 AM64 °FClear.No wind90%29.81 "Hg10 mi
4:53 AM66 °FClear.3 mph87%29.81 "Hg10 mi
3:53 AM68 °FClear.No wind82%29.80 "Hg10 mi
2:53 AM68 °FClear.No wind82%29.80 "Hg10 mi
1:53 AM68 °FClear.No wind82%29.81 "Hg10 mi
12:53 AM68 °FClear.No wind82%29.82 "Hg10 mi
11:53 PM
Aug 29
69 °FClear.No wind79%29.82 "Hg10 mi
10:53 PM70 °FClear.7 mph71%29.82 "Hg10 mi
9:53 PM71 °FClear.3 mph73%29.82 "Hg10 mi
8:53 PM71 °FClear.7 mph73%29.82 "Hg10 mi
7:53 PM73 °FSunny.9 mph64%29.80 "Hg10 mi
6:53 PM76 °FSunny.10 mph58%29.79 "Hg10 mi
5:53 PM79 °FSunny.10 mph58%29.79 "Hg10 mi
Weather by CustomWeather, © 2014

See weather overviewHow to use our weather pages